Zurück zum Katalog

SL-16 DEB

AktivLEO
NORAD 20628·DEBRIS·🇷🇺 Russia

Gestartet May 22, 1990 von Baikonur Cosmodrome

Loading…

Nächste Überflüge (nächste 24 Stunden)

TLE

AktuellSource: Space-Track

Epoche: Sep 14, 2026, 14:01 UTC

1 20628U 90046E   26257.58452702  .00000054  00000-0  89832-4 0  9995
2 20628  70.9792 359.5155 0204853  90.6709 271.7867 13.72506314817747

Verfolge SL-16 DEB in Echtzeit mit AllMySat

Download on the App Store